#timestamp,LO_Frequency,Hit 
1601308815.5,286047002.2,N
1601308835.3,286047001.5,N
1601308855.1,286047003.8,P
1601308875.9,286047000.4,N
1601308895.7,286047000.2,N
1601308915.5,286047000.9,N
1601308935.4,286047002.4,N
1601308955.2,286046999.8,N
1601308975.0,286047000.0,N
1601308975.9,286047000.0,N
1601308995.8,286047000.9,N
1601309015.6,286047002.4,N
1601309035.4,286047000.1,N
1601309055.3,286046999.7,N
1601309075.1,286047000.1,N
1601309076.0,286047000.1,N
1601309095.8,286047000.1,N
1601309115.7,286047000.1,N
1601309135.5,286046999.9,N
1601309155.3,286047000.0,N
1601309175.2,286047000.3,N
1601309195.9,286047002.4,N
1601309215.7,286047002.8,N
1601309235.6,286047002.6,N
1601309255.4,286047002.0,N
1601309275.2,286047000.4,N
1601309295.1,286047002.6,N
1601309296.0,286047002.6,N
1601309315.8,286047001.9,N
1601309335.6,286046999.7,N
1601309355.5,286047001.9,N
1601309375.3,286047002.8,N
1601309395.1,286047001.5,N
1601309415.9,286047002.0,N
1601309435.7,286047002.2,N
1601309455.5,286047002.6,N
1601309475.4,286047001.3,N
1601309495.2,286047001.6,N
1601309515.0,286047002.3,N
1601309515.9,286047002.3,N
1601309535.7,286047001.3,N
1601309555.6,286047001.4,N
1601309575.4,286047000.2,N
1601309595.2,286047001.5,N
1601309615.1,286047001.6,N
1601309616.0,286047001.6,N
1601309635.8,286047001.6,N
1601309655.6,286047001.5,N
1601309675.5,286047001.7,N
1601309695.3,286047002.4,N
1601309715.2,286047002.4,P
1601309735.9,286046999.8,N
1601309755.7,286047000.4,N
1601309775.6,286047000.2,N
1601309795.4,286047001.2,N
1601309815.2,286046999.7,N
1601309835.0,286047000.5,N
1601309836.0,286047000.5,N
1601309855.8,286047000.6,N
1601309875.6,286047000.0,N
1601309895.4,286046999.8,N
1601309915.3,286047000.2,N
1601309935.1,286047000.7,N
1601309955.8,286047000.9,N
1601309975.7,286047000.3,N
1601309995.5,286047002.8,P
1601310015.4,286046999.9,N
1601310035.2,286047001.0,N
1601310055.0,286047000.8,N
1601310055.9,286047000.8,N
1601310075.8,286046998.2,N
1601310095.6,286046999.7,N
1601310115.4,286046998.6,N
1601310135.2,286047002.6,N
1601310155.1,286047000.8,N
1601310156.0,286047000.8,N
1601310175.8,286047000.5,N
1601310195.6,286046999.9,N
1601310215.5,286046999.8,N
1601310235.3,286047002.8,N
1601310255.1,286047000.7,N
1601310275.9,286047000.2,N
1601310295.7,286046999.8,N
1601310315.5,286047000.5,N
1601310335.4,286047001.0,N
1601310355.2,286047000.9,N
1601310375.0,286047001.1,N
1601310375.9,286047001.1,N
1601310395.8,286047000.9,N
1601310415.6,286047000.4,N
1601310435.4,286047000.6,N
1601310455.3,286046998.3,N
1601310475.1,286047000.0,N
1601310495.8,286047000.3,N
1601310515.7,286047000.8,N
1601310535.5,286046999.9,N
1601310555.3,286046999.9,N
1601310575.2,286047001.1,N
1601310595.9,286047000.8,N
1601310615.7,286047000.4,N
1601310635.6,286047000.2,N
1601310655.4,286047000.1,N
1601310675.2,286046999.8,N
1601310695.1,286047000.3,N
1601310696.0,286047000.3,N
1601310715.8,286047002.8,P
1601310735.6,286046999.9,N
1601310755.5,286047001.0,N
1601310775.3,286047000.3,N
1601310795.1,286047002.8,N
1601310815.9,286046998.1,N
1601310835.7,286047000.0,N
1601310855.5,286047000.6,N
1601310875.4,286046998.5,N
1601310895.2,286047000.2,N
1601310915.0,286047001.0,N
1601310915.9,286047001.0,N
1601310935.8,286047000.5,N
1601310955.6,286046998.4,N
1601310975.4,286047001.0,N
1601310995.3,286046998.5,N
1601311015.1,286046998.3,N
1601311016.0,286046998.3,N
1601311035.8,286047001.1,N
1601311055.7,286046998.7,N
1601311075.5,286046999.3,N
1601311095.3,286047000.8,N
1601311115.1,286046999.3,N
1601311135.9,286046998.4,N
1601311155.7,286046999.4,N
1601311175.5,286046997.1,N
1601311195.4,286046999.3,N
1601311215.2,286046999.3,N
1601311235.0,286046999.6,N
1601311235.9,286046999.6,N
1601311255.8,286046997.8,N
1601311275.6,286046997.4,N
1601311295.4,286046997.4,N
1601311315.3,286046997.1,N
1601311335.1,286046996.8,N
1601311355.8,286046996.5,N
1601311375.7,286046997.6,N
1601311395.5,286046996.7,N
1601311415.3,286046996.8,N
1601311435.2,286046996.5,N
1601311455.9,286046997.1,N
1601311475.7,286046996.5,N
1601311495.6,286046996.5,N
1601311515.4,286046999.4,N
1601311535.2,286046997.9,N
1601311555.1,286046999.2,N
1601311556.0,286046999.2,N
1601311575.8,286046997.4,N
1601311595.6,286046997.6,N
1601311615.5,286046997.9,N
1601311635.3,286046994.9,P
1601311655.1,286046998.4,N
1601311675.9,286047000.8,N
1601311695.7,286046999.1,N
1601311715.5,286046999.4,N
1601311735.4,286046998.2,N
1601311755.2,286047000.7,N
1601311775.0,286046999.5,N
1601311775.9,286046999.5,N
1601311795.8,286046998.6,N
1601311815.6,286046998.8,N
1601311835.4,286046998.7,N
1601311855.3,286046998.8,N
1601311875.1,286046998.9,N
1601311876.0,286046998.9,N
1601311895.8,286046999.1,N
1601311915.7,286046998.9,N
1601311935.5,286046998.9,N
1601311955.3,286046999.1,N
1601311975.1,286046996.9,N
1601311995.9,286046997.5,N
1601312015.7,286046997.7,N
1601312035.5,286046997.9,N
1601312055.4,286046996.9,N
1601312075.2,286046995.3,P
1601312095.1,286046997.2,N
1601312096.0,286046997.2,N
1601312115.8,286046999.5,N
1601312135.6,286046997.3,N
1601312155.5,286046996.6,N
1601312175.3,286046996.8,N
1601312195.1,286046999.6,N
1601312215.8,286046996.8,N
1601312235.7,286046999.3,N
1601312255.5,286046997.5,N
1601312275.3,286046997.4,N
1601312295.2,286046997.1,N
1601312315.0,286046996.7,N
1601312315.9,286046996.7,N
1601312335.7,286046999.5,N
1601312355.6,286046999.2,N
1601312375.4,286046999.4,N
1601312395.2,286046997.5,N
